This is the latest recevied weather packets stored in our database for station/object W9GWP. If no packets are shown the sender has not sent any weather packets the latest 10 day(s).
| Time | Temp. | Humidity | Pressure | Rain* | Wind** | Luminosity | Snow |
|---|---|---|---|---|---|---|---|
| 1777533612 | 2.78° C | 97% | 1045.3 hPa | 0 mm | - | 0 W/m² | - |
| 1777532708 | 2.78° C | 97% | 1045.7 hPa | 0 mm | - | 0 W/m² | - |
| 1777531803 | 2.78° C | 97% | 1045.3 hPa | 0 mm | - | 0 W/m² | - |
| 1777530900 | 2.78° C | 97% | 1045.5 hPa | 0 mm | - | 0 W/m² | - |
| 1777529996 | 2.78° C | 97% | 1045.8 hPa | 0 mm | - | 0 W/m² | - |
| 1777529092 | 2.78° C | 97% | 1045.7 hPa | 0 mm | - | 0 W/m² | - |
| 1777528189 | 2.78° C | 97% | 1045.9 hPa | 0 mm | - | 0 W/m² | - |
| 1777527288 | 2.78° C | 96% | 1045.9 hPa | 0 mm | - | 0 W/m² | - |
| 1777526387 | 2.22° C | 96% | 1045.8 hPa | 0 mm | - | 0 W/m² | - |
| 1777525482 | 2.22° C | 96% | 1045.9 hPa | 0 mm | - | 0 W/m² | - |
| 1777524578 | 2.78° C | 95% | 1045.6 hPa | 0 mm | - | 0 W/m² | - |
| 1777523674 | 2.78° C | 95% | 1045.8 hPa | 0 mm | - | 0 W/m² | - |
| 1777522769 | 2.78° C | 95% | 1045.6 hPa | 0 mm | - | 0 W/m² | - |
| 1777521865 | 2.78° C | 94% | 1046 hPa | 0 mm | - | 0 W/m² | - |
| 1777520962 | 3.33° C | 94% | 1045.9 hPa | 0 mm | - | 0 W/m² | - |
| 1777520059 | 3.33° C | 94% | 1046 hPa | 0 mm | - | 0 W/m² | - |
| 1777519155 | 3.33° C | 93% | 1046.1 hPa | 0 mm | - | 0 W/m² | - |
| 1777518254 | 3.89° C | 93% | 1046 hPa | 0 mm | - | 0 W/m² | - |
| 1777517350 | 4.44° C | 92% | 1046.1 hPa | 0 mm | - | 0 W/m² | - |
| 1777516448 | 5° C | 91% | 1046.1 hPa | 0 mm | - | 0 W/m² | - |
| 1777515543 | 5° C | 90% | 1045.9 hPa | 0 mm | - | 0 W/m² | - |
| 1777514639 | 5° C | 88% | 1045.9 hPa | 0 mm | - | 0 W/m² | - |
| 1777513736 | 5.56° C | 88% | 1045.9 hPa | 0 mm | - | 0 W/m² | - |
| 1777512837 | 5.56° C | 88% | 1045.8 hPa | 0 mm | - | 0 W/m² | - |
| 1777511934 | 6.11° C | 88% | 1045.7 hPa | 0 mm | - | 0 W/m² | - |
* Rain latest hour (hover to see other rain measurements)
** Current wind speed in m/s (hover to see current wind gust speed)